Content
SEND FEEDBACK

Daily
Averages
Monthly
Summary
United States of America

ST. LOUIS - SAINT LOUIS UNIVERSITY, MISSOURI


Home > North America > United States > Missouri
Elevation: 580 feet     Latitude: 38 38N     Longitude: 090 14W

WEATHER
 
SELECT A DAY
Number of Records: 186,007;   Date Range: 1/1/95 - 7/23/14
 
SHARE

PRINT THIS DATA

[ ← Previous Day ]
WEATHER ALMANAC - MARCH 19, 2013
[ Next Day → ]
[ °C ]   °F
Weather ElementAverageHighLow
Temperature38.6 °F46.9 °F (3:53 pm)30 °F (5:53 am)
Dewpoint16.6 °F19.9 °F (2:53 am)10.9 °F (4:53 pm)
Humidity42.8 %64 % (4:53 am)23 % (4:53 pm)
Barometer30.18 in30.23 in (12:53 pm)30.07 in (2:53 am)
Wind Speed7.3 mph15 mph (10:53 am)
Wind Gust23 mph (8:53 am)
Weather ElementAverage
Visibility10 mi
Wind DirectionWSW (252.3 °)

Weather ElementTotal
Precipitation---
Heating Degree Days26.6 (Base 65)
Averaged from 22 records on March 19, 2013
WEATHER CONDITIONS BREAKOUT
WIND DIRECTION BREAKOUT
WEATHER BY HOUR - MARCH 19, 2013
[ °C ]   °F
Local TimeTemperatureDewpointHumidityBarometerVisibilityWind DirectionWind SpeedGust SpeedPrecipitationEventsConditions
2:53 AM32.0 °F19.9 °F61 %30.07 in10.0 miNW (320°)8.1 mphClear
3:53 AM32.0 °F19.0 °F59 %30.08 in10.0 miWSW (240°)5.8 mphClear
4:53 AM30.9 °F19.9 °F64 %30.09 in10.0 miWest (270°)4.6 mphClear
5:53 AM30.0 °F19.0 °F64 %30.09 in10.0 miWest (260°)5.8 mphClear
6:53 AM30.9 °F18.0 °F59 %30.12 in10.0 miWest (280°)5.8 mphClear
7:53 AM33.1 °F16.0 °F50 %30.13 in10.0 miWNW (300°)9.2 mph17.3 mphClear
8:53 AM34.0 °F15.1 °F46 %30.15 in10.0 miWNW (300°)12.7 mph23.0 mphClear
9:53 AM36.0 °F15.1 °F43 %30.20 in10.0 miWNW (290°)13.8 mphClear
10:53 AM39.0 °F16.0 °F39 %30.22 in10.0 miWNW (300°)15.0 mph19.6 mphClear
11:53 AM41.0 °F16.0 °F36 %30.22 in10.0 miWest (280°)6.9 mphClear
12:53 PM44.1 °F18.0 °F35 %30.23 in10.0 miWNW (300°)11.5 mphClear
1:53 PM45.0 °F17.1 °F33 %30.22 in10.0 miNNW (330°)10.4 mphClear
2:53 PM46.0 °F14.0 °F28 %30.20 in10.0 miNNW (330°)8.1 mphClear
3:53 PM46.9 °F14.0 °F27 %30.19 in10.0 miNW (310°)12.7 mphPartly Cloudy
4:53 PM46.9 °F10.9 °F23 %30.20 in10.0 miNorth (360°)3.5 mphOvercast
5:53 PM46.0 °F15.1 °F29 %30.21 in10.0 miWNW (300°)4.6 mphOvercast
6:53 PM44.1 °F15.1 °F31 %30.21 in10.0 miCalmMostly Cloudy
7:53 PM41.0 °F16.0 °F36 %30.21 in10.0 miWNW (300°)5.8 mphScattered Clouds
8:53 PM41.0 °F14.0 °F33 %30.20 in10.0 miCalmClear
9:53 PM35.1 °F19.0 °F52 %30.21 in10.0 miWSW (240°)3.5 mphClear
10:53 PM37.0 °F18.0 °F46 %30.21 in10.0 miWSW (240°)4.6 mphClear
11:53 PM37.0 °F19.0 °F48 %30.21 in10.0 miNorthClear
Hourly data recorded from KCPS, located miles away from St. Louis - Saint Louis University, Missouri







STORIES FROM OUR PARTNERS